{"data":{"norad_id":58881,"epoch":"2026-09-19T22:37:55.065216Z","epoch_age_seconds":200978,"freshness":"STALE","line1":"1 58881U 24020F   26262.94299844  .00001341  00000+0  50823-4 0  9995","line2":"2 58881  53.1590 136.4836 0001342  79.5546 280.5608 15.34394570147868","mean_motion":15.3439457,"eccentricity":0.0001342,"inclination_deg":53.159,"raan_deg":136.4836,"arg_perigee_deg":79.5546,"mean_anomaly_deg":280.5608,"bstar":5.0823e-5,"rev_number":14786,"period_min":93.848090194949,"perigee_km":461.80133643291,"apogee_km":463.63742228513,"semimajor_km":6840.856379359,"source":"CELESTRAK","updated_at":"2026-09-21T09:00:33.992778Z"}}